Location: Waning Moon II Observatory
(30.3730°N, 89.7620°W)
Time: 13:56:55
(UTC-06:00)

Meteor 1-21 - Visible Passes

Search period start: 15 December 2017 00:00
Search period end: 25 December 2017 00:00
Orbit: 843 x 890 km, 81.2° (Epoch: 15 December)

Date Brightness Start Highest point End Pass type
(mag) Time Alt. Az. Time Alt. Az. Time Alt. Az.
15 Dec 6.1 19:51:15 10° SSW 19:53:15 22° SSW 19:53:15 22° SSW visible
16 Dec 6.2 18:04:32 10° ESE 18:04:39 10° ESE 18:04:39 10° ESE visible
16 Dec 5.6 19:43:55 10° SSW 19:47:04 33° SW 19:47:04 33° SW visible
17 Dec 6.0 17:57:09 10° ESE 17:58:31 12° E 17:58:31 12° E visible
17 Dec 5.0 19:36:35 10° SSW 19:40:56 48° SW 19:40:56 48° SW visible
18 Dec 5.8 17:49:44 10° ESE 17:52:10 13° E 17:52:25 13° E visible
18 Dec 4.7 19:29:15 10° SSW 19:34:48 58° W 19:34:50 58° W visible
19 Dec 4.5 06:16:28 10° N 06:22:05 76° E 06:27:44 10° SSE visible
19 Dec 5.8 17:42:20 10° ESE 17:44:49 13° E 17:46:19 12° ENE visible
19 Dec 4.7 19:21:54 10° SSW 19:27:27 57° W 19:28:46 46° NW visible
20 Dec 4.5 06:09:07 10° N 06:14:44 77° E 06:20:23 10° SSE visible
20 Dec 5.8 17:34:55 10° ESE 17:37:28 13° E 17:39:58 10° ENE visible
20 Dec 4.7 19:14:33 10° SSW 19:20:06 56° W 19:22:41 31° NNW visible
21 Dec 4.4 06:01:45 10° N 06:07:23 78° E 06:13:02 10° S visible
21 Dec 5.8 17:27:32 10° ESE 17:30:06 13° E 17:32:39 10° ENE visible
21 Dec 4.8 19:07:14 10° SSW 19:12:45 56° W 19:16:36 20° N visible
22 Dec 4.4 05:54:24 10° N 06:00:02 78° E 06:05:42 10° S visible
22 Dec 4.8 18:59:53 10° SSW 19:05:24 55° W 19:10:30 12° N visible
23 Dec 4.4 05:47:02 10° N 05:52:41 79° E 05:58:21 10° S visible
23 Dec 4.9 18:52:32 10° SSW 18:58:03 55° W 19:03:33 10° N visible
24 Dec 4.3 05:39:41 10° N 05:45:20 80° E 05:51:01 10° S visible
24 Dec 4.9 18:45:12 10° SSW 18:50:42 54° W 18:56:11 10° N visible
